Miscellaneous Local Product
Issued by NWS Hastings, NE

Home | Current Version | Previous Version | Graphics & Text | Print | Product List | Glossary On
Versions: 1 2 3 4 5 6 7 8 9 10 11 12 13 14 15 16 17 18 19 20 21 22 23 24 25 26 27 28 29 30 31 32 33 34 35 36 37 38 39 40 41 42 43 44 45 46 47 48 49 50
000
AXUS43 KGID 180202
MISGRI

GID CWA HOURLY WEATHER ROUNDUP
NATIONAL WEATHER SERVICE HASTINGS NE
800 PM CST WED DEC 17 2014

NOTE: "FAIR" INDICATES FEW OR NO CLOUDS BELOW 12,000 FEET WITH NO
SIGNIFICANT WEATHER AND/OR OBSTRUCTIONS TO VISIBILITY.

...SOUTH CENTRAL NEBRASKA...

CITY           SKY/WX    TMP DP  RH WIND       PRES   REMARKS
GRAND ISLAND   CLOUDY    24  18  77 SE6       30.20R WCI  17
HASTINGS       CLOUDY    25  17  72 E6        30.18R WCI  18
KEARNEY        CLOUDY    25  19  80 E9        30.17S WCI  15
ORD            CLOUDY    23  20  88 SE5       30.16S WCI  17
YORK           CLOUDY    25 N/A N/A E8        30.21S WCI  16
AURORA         CLOUDY    25  19  76 SE8       30.20R WCI  16
LEXINGTON      CLOUDY    25  23  93 E5        30.15R WCI  19
HOLDREGE       CLOUDY    25  22  89 E8        30.14S WCI  16
HEBRON         CLOUDY    28  18  67 E5        30.22R WCI  23

...NEBRASKA PANHANDLE...

CITY           SKY/WX    TMP DP  RH WIND       PRES   REMARKS
CHADRON        PTCLDY    14  11  87 CALM      30.02R
ALLIANCE       FOG       22  20  92 S8        29.99S VSB 3/4 WCI  12
SCOTTSBLUFF    FOG       20  18  92 E8        29.99R VSB 1/2 WCI  10
SIDNEY         FOG       21  19  92 SW8       29.98S VSB 3/4 WCI  11

...WESTERN AND NORTH CENTRAL NEBRASKA...

CITY           SKY/WX    TMP DP  RH WIND       PRES   REMARKS
VALENTINE      CLOUDY    22  20  92 S14       30.10S WCI   9
AINSWORTH      CLOUDY    20  19  96 S6        30.11S FOG     WCI  13
ONEILL         CLOUDY    21  20  94 S3        30.18R
BROKEN BOW     CLOUDY    23  21  92 SE7       30.13S WCI  15
IMPERIAL       CLOUDY    24  21  88 SE8       30.07S FOG     WCI  15
NORTH PLATTE   CLOUDY    22  20  92 S6        30.11R WCI  14
MCCOOK         CLOUDY    24  23  96 E7        30.12S FOG     WCI  16

...EASTERN NEBRASKA...

CITY           SKY/WX    TMP DP  RH WIND       PRES   REMARKS
NORFOLK        CLOUDY    25  16  68 E8        30.21R WCI  16
SO SIOUX CITY  PTCLDY    22  15  75 NE5       30.27F WCI  16
TEKAMAH        CLOUDY    27  19  72 E7        30.26F WCI  19
COLUMBUS       CLOUDY    25  14  63 E7        30.24R WCI  17
ALBION         CLOUDY    25  19  77 SE6       30.19S WCI  18
OMAHA EPPLEY   CLOUDY    28  18  66 E5        30.27S WCI  23
OFFUTT AFB     CLOUDY    28  19  69 E7        30.25F WCI  20
MILLARD        CLOUDY    28  17  62 E3        30.25F
LINCOLN        CLOUDY    26  17  68 E8        30.26R WCI  18
NEBRASKA CITY  CLOUDY    27  18  69 CALM      30.26R
BEATRICE       CLOUDY    27  20  75 E6        30.24R WCI  20
FALLS CITY     CLOUDY    29  21  72 E3        30.26R

...NORTHERN KANSAS...

CITY           SKY/WX    TMP DP  RH WIND       PRES   REMARKS
GOODLAND       FOG       24  23  96 E9        30.05R VSB 1/4 WCI  14
HILL CITY      CLOUDY    27  22  81 E12       30.14R WCI  17
NORTON         CLOUDY    25  21  86 E6        30.12S WCI  18
PHILLIPSBURG   CLOUDY    28  23  80 E10       30.17S WCI  19
SMITH CENTER   MOCLDY    25  19  80 E7        30.19S WCI  17
BELOIT         CLOUDY    27  25  93 E5        30.21R WCI  21
HAYS           CLOUDY    28  19  69 E9        30.12F WCI  20
RUSSELL        LGT SNOW  27  26  96 E9        30.14S FOG     WCI  18
CONCORDIA      CLOUDY    27  20  75 SE9       30.21R WCI  18
SALINA         LGT SNOW  29  26  89 E7        30.20F FOG     WCI  22
TOPEKA         CLOUDY    31  21  66 E7        30.25F WCI  24



USA.gov is the U.S. government's official web portal to all federal, state and local government web resources and services.